Location: Unspecified
(56.8936°N, 0.0000°E)
Time: 15:16:01
(UTC+00:00)

Gurwin Techsat 1B - Visible Passes

Search period start: 04 April 2026 00:00
Search period end: 14 April 2026 00:00
Orbit: 809 x 812 km, 99.0° (Epoch: 28 March)

Date Brightness Start Highest point End Pass type
(mag) Time Alt. Az. Time Alt. Az. Time Alt. Az.
4 Apr 10.6 04:32:29 10° NNE 04:37:15 32° E 04:41:58 10° SSE visible
5 Apr 11.2 04:09:15 10° NE 04:13:23 22° E 04:17:30 10° SE visible
6 Apr 11.5 03:46:21 10° NE 03:49:26 15° E 03:52:33 10° ESE visible
7 Apr 12.0 03:24:49 10° ENE 03:25:25 10° E 03:26:01 10° E visible
9 Apr 11.1 04:14:42 10° NE 04:18:59 24° E 04:23:16 10° SE visible
10 Apr 11.4 03:51:42 10° NE 03:55:04 17° E 03:58:26 10° SE visible
11 Apr 11.8 03:29:29 10° ENE 03:31:03 11° E 03:32:37 10° E visible
